Regional Weather Roundup
Issued by NWS Midland/Odessa, TX

Skip options and go directly to product.
Home | Oldest Version | Next Version | Current Version | All | Text Only | Save Text | Print | Product List | Glossary On

Skip product version selection by date and time.   
244
ASUS44 KMAF 261901
RWRMAF
MIDLAND AREA WEATHER ROUNDUP
NATIONAL WEATHER SERVICE MIDLAND TX
200 PM CDT SUN JUN 26 2016

...IN SOUTHWEST TEXAS AND SOUTHEAST NEW MEXICO...

CITY           SKY/WX    TMP DP  RH WIND       PRES   REMARKS
ALPINE         SUNNY     86  55  35 E8        30.21F
ANDREWS        FAIR      82  64  54 SE16G24   30.18S
ARTESIA        SUNNY     84  63  48 E5        30.16F
BIG SPRING     CLOUDY    67  65  90 S7        30.19F
CARLSBAD       CLOUDY    87  63  44 SE9       30.11F
DRYDEN           N/A     87  68  52 E16       30.07F
FORT STOCKTON  CLOUDY    79  59  50 S14G28    30.12R
GUAD PASS      SUNNY     82  56  40 E23G30      N/A
HOBBS          MOSUNNY   84  55  37 E15G21    30.19S
MARFA          MOSUNNY  N/A N/A N/A VRB6G16   30.20F
MIDLAND AIRPK  CLOUDY    75  64  70 SE9       30.19S
MIDLAND INTL   CLOUDY    73  65  75 SE7       30.17F
ODESSA         LGT RAIN  69  66  90 SE10      30.18S
PECOS          SUNNY     92  62  36 E13G21    30.07F
PRESIDIO       FAIR      94  60  32 W5        30.05F
SEMINOLE       PTSUNNY   85  58  39 SE15G21   30.19S
SNYDER           N/A     82  70  65 S17G24    30.16F
WINK           SUNNY     90  61  37 SE16G22   30.09F
$$
...OTHER STATIONS IN TEXAS...

CITY           SKY/WX    TMP DP  RH WIND       PRES   REMARKS
ABILENE        PTSUNNY   87  66  49 S14G23    30.14F
AMARILLO       MOSUNNY   85  61  44 VRB5      30.19F
AUSTIN         PTSUNNY   90  71  53 E13       30.09F
BROWNSVILLE    MOSUNNY   93  75  55 E14G21    30.05F HX 104
CORPUS CHRISTI PTSUNNY   92  73  53 SE12      30.06F HX 100
DALLAS FTW     PTSUNNY   95  67  39 SW16G22   30.08F
DEL RIO        CLOUDY    88  70  55 SE14G21   30.04F
EL PASO        MOSUNNY   92  50  23 VRB5G16   30.10F
HOUSTON INT    PTSUNNY   90  73  57 SE9       30.09F
LUBBOCK        PTSUNNY   85  60  42 SW14      30.18S
SAN ANGELO     CLOUDY    77  71  82 S5        30.15S THUNDER
SAN ANTONIO    CLOUDY    88  71  57 E10       30.10F
WACO           MOSUNNY   93  71  48 S9        30.11F HX 100
WICHITA FALLS  NOT AVBL
$$
...OTHER LOCATIONS IN NEW MEXICO...

CITY           SKY/WX    TMP DP  RH WIND       PRES   REMARKS
ALAMAGORDO     LGT RAIN  68  59  73 E10       30.21S
ALBUQUERQUE    PTSUNNY   86  49  27 VRB3      30.24F
CANNON AFB     TSTM      68  65  90 W13G25    30.22S
CLOVIS         CLOUDY    81  61  50 SW6       30.20F
HOLLOMAN AFB   CLOUDY    81  56  42 E23       30.18R
ROSWELL        SUNNY     84  60  44 E7        30.17F
RUIDOSO          N/A     70  55  60 SE6       30.41S THUNDER
SANTA FE       CLOUDY    79  49  34 S8        30.32F
TRUTH OR CONSE MOSUNNY   88  48  25 VRB6      30.19F
TUCUMCARI      SUNNY     84  62  47 N6        30.18F
$$

USA.gov is the U.S. government's official web portal to all federal, state and local government web resources and services.